Location: Barcelona
(41.3830°N, 2.1830°E)
Time: 09:00:47
(UTC+01:00)

ISS - Pass Details

Date: 19 November 2017
Orbit: 402 x 407 km, 51.6° (Epoch: 21 November)

Event Time Altitude Azimuth Distance (km) Brightness Sun altitude
Exits shadow 06:14:18 18° 212° (SSW) 1,077 -1.9 -16.8°
Drops below altitude 10° 06:16:02 10° 181° (S) 1,444 -0.9 -16.5°
Sets 06:18:30 0° 162° (SSE) 2,298 0.4 -16.1°
